Aurora, IL

7:45 AM CDT on October 20, 2017 (GMT -0500)
Aurora Municipal

Weather History for KARR - January, 2013

Change the Weather History Date:

Wednesday, January 9, 2013

  Actual Average Record
Temperature  
Mean Temperature 36 °F 21 °F  
Max Temperature 50 °F 29 °F 55 °F (2002)
Min Temperature 22 °F 13 °F -12 °F (1999)
Degree Days  
Heating Degree Days 29 44  
Month to date heating degree days 363 394  
Since 1 July heating degree days 2816 3043  
Cooling Degree Days 0 0  
Month to date cooling degree days 0 0  
Year to date cooling degree days 0 0  
Moisture  
Dew Point 26 °F    
Average Humidity 65    
Maximum Humidity 92    
Minimum Humidity 37    
Precipitation  
Precipitation 0.00 in 0.04 in 0.12 in (2016)
Month to date precipitation 0.01 0.37  
Year to date precipitation 0.01 0.37  
Sea Level Pressure  
Sea Level Pressure 30.31 in    
Wind  
Wind Speed 12 mph (WSW)    
Max Wind Speed 33 mph    
Max Gust Speed 40 mph    
Visibility 10 miles    
Events      
T = Trace of Precipitation, MM = Missing Value Source: NWS Daily Summary

Daily Weather History Graph

Daily Weather History Graph

Search for Another Location

Airport or City:

Trip Planner

Search our weather history database for the weather conditions in past years. The results will help you decide how hot, cold, wet, or windy it might be!

Date:

Astronomy

Jan. 09, 2013 Rise Set
Actual Time 7:20 AM CST 4:41 PM CST
Civil Twilight 6:49 AM CST 5:13 PM CST
Nautical Twilight 6:15 AM CST 5:47 PM CST
Astronomical Twilight 5:41 AM CST 6:21 PM CST
Moon 4:59 AM CST (1/9) 2:43 PM CST (1/9)
Length of Visible Light 10h 23m
Length of Day
9h 21m
Waning Crescent, 6% of the Moon is Illuminated
Jan 9
Waning Crescent
Jan 11
New
Jan 18
First Quarter
Jan 26
Full
Feb 3
Last Quarter

Hourly Weather History & Observations

Time (CST) Temp. Windchill Dew Point Humidity Pressure Visibility Wind Dir Wind Speed Gust Speed Precip Events Conditions
12:52 AM 39.9 °F 32.5 °F 30.9 °F 70% 30.03 in 10.0 mi SSW 12.7 mph - N/A   Overcast
1:52 AM 37.0 °F 29.3 °F 30.0 °F 76% 30.05 in 10.0 mi SW 11.5 mph - N/A   Clear
2:52 AM 36.0 °F 27.5 °F 28.9 °F 76% 30.07 in 10.0 mi SW 12.7 mph - N/A   Clear
3:52 AM 35.1 °F 26.4 °F 30.0 °F 82% 30.09 in 10.0 mi WSW 12.7 mph - N/A   Clear
4:52 AM 33.1 °F 24.4 °F 28.9 °F 85% 30.12 in 10.0 mi West 11.5 mph - N/A   Clear
5:52 AM 32.0 °F 24.2 °F 28.9 °F 88% 30.16 in 9.0 mi WSW 9.2 mph - N/A   Clear
7:52 AM 32.0 °F 23.6 °F 28.0 °F 85% 30.22 in 7.0 mi WSW 10.4 mph - N/A   Clear
8:52 AM 34.0 °F 26.6 °F 30.0 °F 85% 30.26 in 9.0 mi SW 9.2 mph - N/A   Clear
9:52 AM 37.9 °F 29.6 °F 30.9 °F 76% 30.28 in 10.0 mi WSW 13.8 mph - N/A   Clear
11:52 AM 48.9 °F - 27.0 °F 43% 30.31 in 10.0 mi West 25.3 mph 34.5 mph N/A   Clear
12:52 PM 48.0 °F - 28.0 °F 46% 30.32 in 10.0 mi West 29.9 mph 35.7 mph N/A   Clear
1:52 PM 46.9 °F - 23.0 °F 39% 30.32 in 10.0 mi West 24.2 mph 32.2 mph N/A   Clear
2:52 PM 46.0 °F 39.0 °F 21.0 °F 37% 30.36 in 10.0 mi West 17.3 mph 29.9 mph N/A   Clear
3:52 PM 43.0 °F 34.5 °F 23.0 °F 45% 30.39 in 10.0 mi WNW 19.6 mph 23.0 mph N/A   Clear
4:52 PM 37.0 °F 30.4 °F 23.0 °F 57% 30.44 in 10.0 mi WNW 9.2 mph - N/A   Clear
5:52 PM 30.0 °F 25.2 °F 21.9 °F 72% 30.47 in 10.0 mi West 4.6 mph - N/A   Clear
6:52 PM 30.0 °F 24.1 °F 23.0 °F 75% 30.46 in 10.0 mi NNW 5.8 mph - N/A   Clear
7:52 PM 30.0 °F 24.1 °F 23.0 °F 75% 30.47 in 8.0 mi NW 5.8 mph - N/A   Clear
8:52 PM 26.1 °F 21.9 °F 21.0 °F 81% 30.48 in 10.0 mi South 3.5 mph - N/A   Clear
9:52 PM 26.1 °F 21.9 °F 21.0 °F 81% 30.48 in 10.0 mi SSW 3.5 mph - N/A   Clear
10:52 PM 26.1 °F 20.5 °F 21.0 °F 81% 30.50 in 10.0 mi West 4.6 mph - N/A   Clear
11:52 PM 21.9 °F - 19.0 °F 89% 30.51 in 10.0 mi Calm Calm - N/A   Clear